カタログに戻る

STARLINK-37945

運用中通信SSO
NORAD 69669·PAYLOAD·🇺🇸 United States

打ち上げ Jun 21, 2026 から Vandenberg Space Force Base

Loading…

次のパス (今後24時間)

TLE

最新Source: CelesTrak SupGP

元期: Sep 14, 2026, 22:39 UTC

1 69669C 26143W   26257.94423611  .00028047  00000+0  87087-3 0  2574
2 69669  97.2839 301.2279 0001434  86.5991 214.1424 15.33416911    13

AllMySatでSTARLINK-37945をリアルタイム追跡

Download on the App Store